Location: Ostrava
(49.8330°N, 18.2830°E)
Time: 03:06:14
(UTC+02:00)

Envisat - Pass Details

Date: 20 January 2022
Orbit: 764 x 765 km, 98.2° (Epoch: 22 May)

Event Time Altitude Azimuth Distance (km) Brightness Sun altitude
Rises 16:58:40 0° 207° (SSW) 3,219 7.1 -6.1°
Reaches altitude 10° 17:01:34 10° 224° (SW) 2,298 6.8 -6.6°
Maximum altitude 17:05:12 20° 270° (W) 1,735 5.9 -7.1°
Drops below altitude 10° 17:08:51 10° 317° (NW) 2,310 5.8 -7.6°
Sets 17:11:49 0° 334° (NNW) 3,242 6.3 -8.1°
